Regional Weather Roundup
Issued by NWS

Home | Current Version | Previous Version | Text Only | Print | Product List | Glossary Off
Versions: 1 2 3 4 5 6 7 8 9 10 11 12 13 14 15 16 17 18 19 20 21 22 23 24 25 26 27 28 29 30 31 32 33 34 35 36 37 38 39 40 41 42 43 44 45 46 47 48 49 50

000
ASUS43 KBIS 290301
RWRND

NORTH DAKOTA REGIONAL WEATHER ROUNDUP
NATIONAL WEATHER SERVICE BISMARCK ND
900 PM CST WED JAN 28 2015

NOTE: "FAIR" INDICATES FEW OR NO CLOUDS BELOW 12,000 FEET WITH NO
SIGNIFICANT WEATHER AND/OR OBSTRUCTIONS TO VISIBILITY.


NDZ001>003-009>011-017-290400-
NORTHWEST NORTH DAKOTA

CITY           SKY/WX    TMP DP  RH WIND       PRES   REMARKS
WILLISTON      CLOUDY    34  29  82 NW10      30.25R
MINOT          CLOUDY    29  25  85 NW26G32   30.16R WCI  14
MINOT AFB      CLOUDY    29  29  99 NW21G28   30.16R WCI  16
$$

NDZ018>021-031>035-040>046-290400-
SOUTHWEST NORTH DAKOTA

CITY           SKY/WX    TMP DP  RH WIND       PRES   REMARKS
BISMARCK       CLOUDY    32  27  81 NW22G32   30.16R WCI  19
DICKINSON      CLOUDY    32  28  85 NW23G29   30.20R WCI  19
GARRISON         N/A     32  28  85 NW18G26   30.16R
HETTINGER ARPT CLOUDY    32  27  81 NW22G35   30.22R WCI  19
$$

NDZ004>008-012>016-024-026-027-054-290400-
NORTHEAST NORTH DAKOTA

CITY           SKY/WX    TMP DP  RH WIND       PRES   REMARKS
GRAND FORKS    CLOUDY    27  24  89 N18       30.01R WCI  14
GRND FRKS AFB  CLOUDY    27  23  87 N16       30.02R WCI  14
DEVILS LAKE    MOCLDY    23  18  80 NW18      30.06R WCI   9
$$

NDZ022-023-025-028>030-036>039-047>053-290400-
SOUTHEAST NORTH DAKOTA

CITY           SKY/WX    TMP DP  RH WIND       PRES   REMARKS
FARGO          CLOUDY    32  28  85 N28G33    29.97R WCI  18
JAMESTOWN      CLOUDY    29  25  85 NW25G37   30.04R WCI  14
$$




USA.gov is the U.S. government's official web portal to all federal, state and local government web resources and services.